Location: Julian California
(33.0790°N, 116.6010°W)
Time: 01:57:05
(UTC-07:00)

H-2A R/B - Pass Details

Date: 19 May 2017
Orbit: 578 x 658 km, 98.4° (Epoch: 28 June)

Event Time Altitude Azimuth Distance (km) Brightness Sun altitude
Exits shadow 23:09:04 32° 329° (NNW) 1,111 3.8 -32.4°
Drops below altitude 10° 23:11:36 10° 341° (NNW) 2,067 5.6 -32.6°
Sets 23:13:52 0° 344° (NNW) 2,986 6.6 -32.8°
